Simultaneous Nadir Overpasses (SNOs) Predictions

Prediction of SNOs between AQUA and NOAA-19 Satellite Orbit:

Table of predicted SNOs for the next 14.0 days since TLE Epoch: 3/11/2023
Index Date (AQUA) Time (AQUA) Lat,Lon (AQUA) SZA (AQUA ) Date (NOAA-19) Time (NOAA-19) Lat,Lon (NOAA-19) SZA (NOAA-19 ) Distance(km) Time Diff (sec)
1 03/12/2023 03:18:38 -76.73, -61.08 99.50 03/12/2023 03:17:58 -76.72, -61.01 99.51 2.29 40
2 03/12/2023 04:08:05 76.78, 106.38 80.55 03/12/2023 04:09:00 76.79, 106.49 80.53 2.88 55
3 03/14/2023 08:50:50 76.75, 35.83 79.63 03/14/2023 08:50:39 76.74, 35.97 79.62 3.69 11
4 03/14/2023 09:40:19 -76.97,-157.31 100.13 03/14/2023 09:41:29 -77.00,-155.62 100.20 42.65 70
5 03/16/2023 13:33:32 76.65, -34.48 78.64 03/16/2023 13:32:20 76.60, -34.95 78.64 13.22 72
6 03/16/2023 14:22:58 -76.73, 132.90 101.29 03/16/2023 14:23:14 -76.72, 132.79 101.29 2.89 16
7 03/18/2023 19:05:40 -76.70, 62.32 102.19 03/18/2023 19:04:52 -76.71, 62.44 102.17 3.06 48
8 03/18/2023 19:55:07 76.77,-130.27 77.88 03/18/2023 19:55:53 76.76,-130.12 77.85 3.96 46
9 03/21/2023 00:37:46 76.69, 159.37 76.91 03/21/2023 00:37:31 76.72, 159.39 76.95 4.01 15
10 03/21/2023 01:27:13 -76.80, -33.39 102.98 03/21/2023 01:28:26 -76.84, -32.87 102.99 13.92 73
11 03/23/2023 05:20:24 76.64, 88.91 75.97 03/23/2023 05:19:11 76.59, 88.49 75.96 11.95 73
12 03/23/2023 06:09:50 -76.70,-103.68 103.97 03/23/2023 06:10:06 -76.73,-103.67 103.95 2.69 16



Historial Predications of SNOs between AQUA and NOAA-19
